Location: Home
(42.5358°N, 72.7383°W)
Time: 05:59:14
(UTC-05:00)

Transit 4A - Pass Details

Date: 09 December 2021
Orbit: 863 x 981 km, 66.8° (Epoch: 26 January)

Event Time Altitude Azimuth Distance (km) Brightness Sun altitude
Rises 17:28:57 0° 200° (SSW) 3,443 11.5 -12.7°
Reaches altitude 10° 17:31:24 10° 198° (SSW) 2,519 10.7 -13.1°
Maximum altitude 17:37:10 68° 117° (ESE) 957 7.8 -14.1°
Enters shadow 17:42:15 15° 36° (NE) 2,273 9.5 -15.0°
